Zurück zum Katalog

STARLINK-36156

AktivKommunikationVLEO
NORAD 67006·PAYLOAD·🇺🇸 United States

Gestartet Dec 10, 2025 von Vandenberg Space Force Base

Loading…

Nächste Überflüge (nächste 24 Stunden)

TLE

AktuellSource: CelesTrak SupGP

Epoche: Sep 14, 2026, 21:34 UTC

1 67006C 25293D   26257.89909722 -.00044140  00000+0 -37001-2 0  2572
2 67006  70.0019 337.5436 0003473 270.1818 169.3131 14.98341457    14

Verfolge STARLINK-36156 in Echtzeit mit AllMySat

Download on the App Store